User: anonymous   Login
Location: Lawrence
(38.9720°N, 95.2350°W)
Time: 09:47:27
(UTC-05:00)
Language:

JAS-1B - Orbit

View from above orbital plane
View from above orbital plane
View from above satellite
View from above satellite

Ground track
Ground track

The orbit data is extracted from the following two-line orbital elements,

1 20480U 90013C   16205.59453279 -.00000059  00000-0 -65221-4 0  9991
2 20480  99.0214  34.9170 0540980  55.7938 339.9495 12.83411813239578
Epoch (UTC): 23 July 2016 14:16:07
Eccentricity: 0.0540980
inclination: 99.0214°
perigee height: 911 km
apogee height: 1744 km
right ascension of ascending node: 34.9170°
argument of perigee: 55.7938°
revolutions per day: 12.83411813
mean anomaly at epoch: 339.9495°
orbit number at epoch: 23957

The dashed part of the orbit path shows where the satellite is in the earth's shadow,  

DLR